Location: Munkebjergskolens Observatorium
(55.3864°N, 10.3987°E)
Time: 17:54:22
(UTC+02:00)

CAS-4A - Visible Passes

Search period start: 20 April 2024 00:00
Search period end: 30 April 2024 00:00
Orbit: 479 x 496 km, 43.0° (Epoch: 20 April)

Date Brightness Start Highest point End Pass type
(mag) Time Alt. Az. Time Alt. Az. Time Alt. Az.
20 Apr ? 04:47:06 10° S 04:47:38 10° SSE 04:48:08 10° SSE visible
21 Apr ? 04:21:01 10° S 04:21:29 10° SSE 04:21:56 10° SSE visible
22 Apr ? 03:55:25 10° SSE 03:55:25 10° SSE 03:55:39 10° SSE visible
23 Apr ? 05:05:10 10° SSW 05:06:58 13° S 05:08:47 10° SSE visible
24 Apr ? 04:39:15 11° SSW 04:40:38 13° S 04:42:27 10° SSE visible
25 Apr ? 04:14:00 13° S 04:14:16 13° S 04:16:03 10° SSE visible
26 Apr ? 03:48:46 12° SSE 03:48:46 12° SSE 03:49:36 10° SSE visible
